DW6399 Weather Reports


time (UTC)temp
F
wind
direction
speed
knots
gust
knots
rain 1hr
in
rain 24hr
in
rain mn
in
humidity
%
barometer
mb
20260508200004 35 335 1.7 2.6 0.00 0.06 0.05 71 1025.6
20260508195403 36 335 1.7 2.6 0.00 0.06 0.05 71 1025.5
20260508194503 36 335 1.7 2.6 0.00 0.08 0.05 69 1025.3
20260508193603 35 335 2.6 4.3 0.00 0.10 0.05 72 1025.2
20260508192703 34 328 3.5 4.3 0.00 0.12 0.05 73 1025.1
20260508191804 36 315 2.6 3.5 0.00 0.14 0.05 70 1025.0
20260508190903 37 315 2.6 3.5 0.00 0.15 0.05 68 1025.0
20260508190025 38 315 2.6 3.5 0.00 0.15 0.05 64 1025.0
20260508185424 38 315 1.7 2.6 0.00 0.16 0.05 64 1024.9
20260508184504 38 315 1.7 2.6 0.00 0.16 0.05 64 1024.8
20260508183604 39 315 1.7 2.6 0.00 0.16 0.05 64 1024.6
20260508182703 39 315 1.7 2.6 0.00 0.17 0.05 63 1024.6
20260508181824 40 315 1.7 2.6 0.00 0.17 0.05 62 1024.5
20260508180904 42 315 2.6 2.6 0.00 0.18 0.05 60 1024.5
20260508180003 44 315 2.6 3.5 0.00 0.19 0.05 57 1024.5
20260508175403 45 315 1.7 3.5 0.00 0.20 0.05 54 1024.5
20260508174503 47 315 1.7 4.3 0.00 0.23 0.05 47 1024.4
20260508173603 49 317 3.5 5.2 0.00 0.23 0.05 43 1024.3
20260508172703 50 326 3.5 7.0 0.00 0.23 0.05 42 1024.3
20260508170903 51 313 4.3 7.8 0.00 0.24 0.05 40 1024.2
20260508170003 50 299 6.1 11.3 0.00 0.24 0.05 39 1024.2
20260508165403 50 308 7.0 11.3 0.00 0.24 0.05 40 1024.2
20260508164503 51 306 6.1 9.6 0.00 0.24 0.05 36 1024.2
20260508163603 52 292 6.1 11.3 0.00 0.24 0.05 37 1024.0
20260508162703 52 298 6.1 11.3 0.00 0.24 0.05 36 1023.9
20260508161803 52 289 6.1 11.3 0.00 0.24 0.05 35 1023.9
20260508160924 52 290 6.1 10.4 0.00 0.24 0.05 33 1023.8
20260508160024 52 292 7.0 12.2 0.00 0.24 0.05 35 1023.7
20260508155425 52 305 7.0 13.9 0.00 0.24 0.05 36 1023.6
20260508154504 52 284 7.0 13.0 0.00 0.24 0.05 37 1023.5
20260508153604 52 292 7.0 11.3 0.00 0.24 0.05 37 1023.4
20260508152704 52 307 7.8 13.0 0.00 0.24 0.05 36 1023.4
20260508151804 52 296 6.1 14.8 0.00 0.24 0.05 37 1023.3
20260508150904 53 291 6.1 10.4 0.00 0.24 0.05 37 1023.3
20260508150005 52 314 5.2 10.4 0.00 0.24 0.05 41 1023.2
20260508145425 52 316 6.1 10.4 0.00 0.24 0.05 41 1023.3
20260508144504 52 292 5.2 10.4 0.00 0.24 0.05 42 1023.3
20260508143604 52 298 5.2 10.4 0.00 0.24 0.05 42 1023.3
20260508142704 53 298 5.2 10.4 0.00 0.24 0.05 43 1023.3
20260508141804 53 289 7.0 13.0 0.00 0.24 0.05 43 1023.3
20260508140904 53 304 3.5 12.2 0.00 0.24 0.05 42 1023.3
20260508140005 52 306 7.0 12.2 0.00 0.24 0.05 43 1023.2
20260508134504 52 315 8.7 14.8 0.00 0.24 0.05 43 1023.3
20260508133604 52 311 7.0 12.2 0.00 0.24 0.05 43 1023.4
20260508132725 51 297 4.3 12.2 0.00 0.24 0.05 42 1023.4
20260508131804 51 291 7.8 13.0 0.00 0.24 0.05 43 1023.5
20260508130904 53 313 6.1 13.0 0.00 0.24 0.05 43 1023.3
20260508130005 53 317 7.8 13.0 0.00 0.24 0.05 43 1023.3
20260508125404 52 301 7.0 11.3 0.00 0.24 0.05 45 1023.3
20260508124504 50 326 4.3 11.3 0.00 0.24 0.05 47 1023.3
20260508123604 50 309 4.3 8.7 0.00 0.24 0.05 47 1023.4
20260508122704 51 293 6.1 11.3 0.00 0.24 0.05 46 1023.5
20260508121804 52 291 3.5 11.3 0.00 0.25 0.05 48 1023.4
20260508120904 53 186 3.5 8.7 0.00 0.25 0.05 51 1023.4
20260508120004 52 184 2.6 7.8 0.00 0.26 0.05 51 1023.3
20260508115404 51 261 2.6 7.8 0.00 0.26 0.05 49 1023.3
20260508114504 51 277 3.5 8.7 0.00 0.26 0.05 52 1023.4
20260508113604 51 277 4.3 13.0 0.00 0.26 0.05 52 1023.5
20260508112704 51 199 3.5 8.7 0.00 0.26 0.05 56 1023.4
20260508111804 50 200 3.5 9.6 0.00 0.26 0.05 58 1023.6
20260508110904 49 198 3.5 10.4 0.00 0.26 0.05 63 1023.6
20260508110004 48 267 5.2 13.0 0.00 0.26 0.05 60 1023.5
20260508105404 49 279 7.0 13.0 0.00 0.26 0.05 56 1023.5
20260508104504 50 321 7.0 12.2 0.00 0.26 0.05 55 1023.1
20260508041804 35 281 2.6 5.2 0.02 0.23 0.02 94 1019.7
20260508040904 34 298 3.5 6.1 0.02 0.23 0.02 94 1019.3
20260508040004 34 301 2.6 6.1 0.00 0.20 0.00 94 1018.5
20260508035404 33 305 3.5 5.2 0.00 0.20 0.00 94 1017.1
20260508034504 33 302 2.6 6.1 0.00 0.20 0.00 94 1020.1
20260508033604 33 292 2.6 4.3 0.00 0.20 0.00 94 1019.6
20260508032725 32 283 3.5 6.1 0.00 0.20 0.00 94 1019.4
20260508031825 32 289 2.6 5.2 0.00 0.20 0.00 94 1019.4
20260508030904 32 295 2.6 6.1 0.00 0.20 0.00 94 1019.3
20260508030004 32 299 2.6 7.0 0.00 0.20 0.00 94 1019.3
20260508025404 31 289 2.6 4.3 0.00 0.20 0.00 94 1019.3
20260508024525 31 282 2.6 5.2 0.00 0.20 0.00 94 1019.2
20260508023604 31 293 2.6 5.2 0.00 0.20 0.00 94 1019.0
20260508022704 30 301 1.7 3.5 0.00 0.20 0.00 94 1019.0
20260508021804 29 296 1.7 3.5 0.00 0.20 0.00 93 1018.9
20260508020904 29 296 0.9 1.7 0.00 0.20 0.00 93 1018.9
20260508020004 29 296 0.9 2.6 0.00 0.20 0.00 93 1018.7
20260508015404 30 296 0.9 2.6 0.00 0.20 0.00 93 1018.6
20260508014504 30 296 1.7 2.6 0.00 0.20 0.00 93 1018.6
20260508013625 31 296 1.7 3.5 0.00 0.20 0.00 93 1018.6
20260508012704 31 307 1.7 3.5 0.00 0.20 0.00 94 1018.5
20260508011804 31 307 2.6 3.5 0.00 0.20 0.00 94 1018.4
20260508010904 31 303 2.6 5.2 0.00 0.20 0.00 94 1018.3
20260508010025 32 304 2.6 6.1 0.00 0.20 0.00 94 1018.2
20260508005404 32 298 2.6 6.1 0.00 0.20 0.00 94 1018.2
20260508004525 32 290 2.6 6.1 0.00 0.20 0.00 94 1018.2
20260508003604 31 290 2.6 5.2 0.00 0.20 0.00 93 1018.0
20260508002704 31 302 2.6 5.2 0.00 0.20 0.00 94 1018.1
20260508001825 31 306 2.6 3.5 0.00 0.20 0.00 94 1018.0
20260508000925 32 307 2.6 4.3 0.00 0.20 0.00 93 1017.9
20260508000004 32 316 2.6 4.3 0.00 0.20 0.00 93 1017.8
20260507235404 32 319 2.6 4.3 0.00 0.20 0.00 93 1017.8
20260507234525 32 308 3.5 6.1 0.00 0.20 0.00 93 1017.7
20260507233625 32 304 3.5 7.0 0.00 0.20 0.00 93 1017.6
20260507232726 32 296 3.5 7.0 0.00 0.20 0.00 93 1017.5
20260507231825 32 296 3.5 6.1 0.00 0.20 0.00 94 1017.4
20260507230904 32 292 2.6 6.1 0.00 0.20 0.00 93 1017.4
20260507230004 31 286 2.6 3.5 0.00 0.20 0.00 93 1017.4
20260507225425 31 286 2.6 5.2 0.00 0.20 0.00 93 1017.3
20260507224504 32 283 2.6 3.5 0.00 0.20 0.00 93 1017.1
20260507223624 31 308 1.7 3.5 0.00 0.20 0.00 93 1017.0
20260507222704 32 308 2.6 3.5 0.00 0.20 0.00 93 1017.0
20260507221824 32 308 2.6 4.3 0.00 0.20 0.00 93 1016.9
20260507220904 31 313 2.6 3.5 0.00 0.20 0.00 93 1016.8
20260507220004 32 315 1.7 3.5 0.00 0.20 0.00 93 1016.6
20260507215425 32 315 2.6 3.5 0.00 0.20 0.00 93 1016.6
20260507214503 32 315 1.7 3.5 0.00 0.20 0.00 93 1016.5
20260507213625 33 315 2.6 3.5 0.00 0.20 0.00 93 1016.5
20260507212704 33 315 2.6 4.3 0.00 0.20 0.00 93 1016.4
20260507211804 33 316 0.9 4.3 0.00 0.20 0.00 93 1016.3
20260507210924 33 0 0.0 0.0 0.00 0.20 0.00 93 1016.2
20260507210006 33 0 0.0 0.0 0.01 0.20 0.00 93 1016.1
20260507205404 33 0 0.0 0.0 0.01 0.20 0.20 93 1016.1
20260507204504 33 300 0.9 1.7 0.03 0.20 0.20 93 1016.0
20260507203625 33 300 1.7 2.6 0.05 0.20 0.20 92 1016.0
20260507202703 33 300 1.7 2.6 0.07 0.20 0.20 92 1015.9
20260507201804 33 304 1.7 3.5 0.09 0.20 0.20 92 1015.8
20260507200904 33 334 0.9 2.6 0.10 0.20 0.20 92 1015.8